TimeEDT,TemperatureF,Dew PointF,Humidity,Sea Level PressureIn,VisibilityMPH,Wind Direction,Wind SpeedMPH,Gust SpeedMPH,PrecipitationIn,Events,Conditions,WindDirDegrees,DateUTC
12:53 AM,55.9,33.1,42,30.03,10.0,West,4.6,-,N/A,,Clear,280,2011-10-16 04:53:00
1:53 AM,55.4,33.8,44,30.08,10.0,Calm,Calm,-,N/A,,Clear,0,2011-10-16 05:53:00
2:53 AM,52.0,35.1,53,30.04,10.0,Calm,Calm,-,N/A,,Clear,0,2011-10-16 06:53:00
3:53 AM,53.1,33.1,47,30.03,10.0,Calm,Calm,-,N/A,,Clear,0,2011-10-16 07:53:00
4:53 AM,48.9,36.0,61,30.04,10.0,Calm,Calm,-,N/A,,Clear,0,2011-10-16 08:53:00
5:53 AM,48.9,36.0,61,30.05,10.0,Calm,Calm,-,N/A,,Clear,0,2011-10-16 09:53:00
6:53 AM,46.9,39.0,74,30.07,10.0,NNE,3.5,-,N/A,,Clear,20,2011-10-16 10:53:00
7:53 AM,45.0,42.1,90,30.09,10.0,Calm,Calm,-,N/A,,Clear,0,2011-10-16 11:53:00
8:53 AM,50.0,42.1,74,30.11,10.0,Calm,Calm,-,N/A,,Clear,0,2011-10-16 12:53:00
9:53 AM,57.9,39.9,51,30.11,10.0,West,4.6,-,N/A,,Clear,270,2011-10-16 13:53:00
10:53 AM,64.0,41.0,43,30.10,10.0,Calm,Calm,-,N/A,,Clear,0,2011-10-16 14:53:00
11:53 AM,69.1,42.1,38,30.09,10.0,Variable,3.5,-,N/A,,Clear,0,2011-10-16 15:53:00
12:53 PM,73.0,44.1,35,30.06,10.0,SSW,8.1,-,N/A,,Clear,200,2011-10-16 16:53:00
1:53 PM,75.9,43.0,31,30.01,10.0,South,11.5,18.4,N/A,,Clear,180,2011-10-16 17:53:00
2:53 PM,78.1,44.1,30,29.98,10.0,South,11.5,18.4,N/A,,Clear,190,2011-10-16 18:53:00
3:53 PM,79.0,45.0,30,29.95,10.0,SSW,15.0,-,N/A,,Clear,200,2011-10-16 19:53:00
4:53 PM,78.1,45.0,31,29.94,10.0,SSW,11.5,-,N/A,,Clear,200,2011-10-16 20:53:00
5:53 PM,77.0,46.9,34,29.93,10.0,SSW,8.1,-,N/A,,Clear,200,2011-10-16 21:53:00
6:53 PM,73.0,45.0,37,29.93,10.0,SSW,5.8,-,N/A,,Clear,200,2011-10-16 22:53:00
7:53 PM,71.1,44.1,38,29.93,10.0,SSW,8.1,-,N/A,,Clear,200,2011-10-16 23:53:00
8:53 PM,69.1,45.0,42,29.94,10.0,SSW,10.4,-,N/A,,Clear,200,2011-10-17 00:53:00
9:53 PM,69.1,44.1,40,29.93,10.0,SSW,11.5,-,N/A,,Clear,200,2011-10-17 01:53:00
10:53 PM,70.0,44.1,39,29.93,10.0,SW,8.1,-,N/A,,Clear,220,2011-10-17 02:53:00
11:53 PM,63.0,45.0,52,29.93,10.0,SW,5.8,-,N/A,,Clear,220,2011-10-17 03:53:00